Погода в Сергокале

Россия / Республика Дагестан     42°27′15″N   47°39′46″E
темп.,
°C
ветер,
м/с
пор.,
м/с
влажн.,
%
обл.,
%
осадки,
мм/ч
давл.,
гПа
погр.,
м
27 января, ср
ср2700:00+3вюв118650 0.0 102022
03:00+2юв018031 0.0 101922
06:00+2ююв11750 0.0 101822
09:00+4юв45640 0.0 1017167
12:00+7юв676541 0.0 1015343
15:00+7вюв337435 0.0 1012278
18:00+4ююв348516 0.0 101250
21:00+5ююв237010 0.0 101032
28 января, чт
чт2800:00+6юз116452 0.0 100922
03:00+6зсз235876 0.0 100726
06:00+6з2256100 0.0 100628
09:00+8сз2254100 0.0 100558
12:00+10с3450100 0.0 1003123
15:00+9св1259100 0.0 100293
18:00+8сз2360100 0.0 100335
21:00+7ююз1265100 0.0 100430
29 января, пт
пт2900:00+5юв1272100 0.0 100723
03:00+4сз1280100 0.0 100928
06:00+5зсз237660 0.0 101232
09:00+5вюв017965 0.0 101346
12:00+6юв1281100 0.0 1013148
15:00+5всв229099 0.0 1013210
18:00+4вюв2294100 0.0 1014155
21:00+4в1296100 0.0 1015131
30 января, сб
сб3000:00+3вюв2297100 0.0 1015144
03:00+3юв3497100 0.0 1013188
06:00+3ююв339375 0.0 101380
09:00+5ююв337838 0.0 1012162
12:00+7вюв45720 0.0 1010455
15:00+6вюв33835 0.0 1009347
18:00+5вюв229269 0.0 1011154
21:00+3юв339661 0.0 101194
31 января, вс
вс3100:00+3ююв45887 0.0 100986
03:00+3ююв45773 0.0 100790
06:00+3ююв34660 0.0 100648
09:00+4юв236413 0.0 1006122
12:00+7в22620 0.0 1006238
15:00+7с456816 0.0 1007341
18:00+5с228298 0.0 101179
21:00+3ссз019081 0.0 101422